Weather in Gurgaon

India     28°26′37″N   77°02′11″E
temp.,
°C
wind,
m/s
gust,
m/s
humid.,
%
clouds,
%
prec.,
mm/h
press.,
hPa
HPBL,
m
12 april, mon
mon1223:30+30wnw2490 0.0 1010113
02:30+28nw13100 0.0 1010115
05:30+27wsw11123 0.0 101025
08:30+31sw22102 0.0 1012207
11:30+37wnw117100 0.0 10111533
14:30+39nnw25671 0.0 10084905
17:30+39nw6759 0.0 10065256
20:30+35nw4875 0.0 1008271
13 april, tue
tue1323:30+32wnw3685 0.0 1008133
02:30+29nnw3590 0.0 1008178
05:30+27sw33113 0.0 100869
08:30+32w3495 0.0 1010248
11:30+39nw3771 0.0 10093614
14:30+41nw68629 0.0 10065486
17:30+40wnw7865 0.0 10045299
20:30+35w41080 0.0 1006381
14 april, wed
wed1423:30+32wnw3790 0.0 1007182
02:30+30wnw34105 0.0 1006106
05:30+28wsw47120 0.0 1007139
08:30+33wnw5880 0.0 1009384
11:30+40nw4564 0.0 10083463
14:30+42wnw564100 0.0 10045927
17:30+40wnw6755 0.0 10035433
20:30+35wnw512796 0.0 1005584
15 april, thu
thu1523:30+32wnw49100 0.0 1006251
02:30+30wnw351460 0.0 1006149
05:30+29w4121654 0.0 1006377
08:30+32wnw6111493 0.0 1009623
11:30+39nw6694 0.0 10082825
14:30+40wnw5784 0.0 10044841
17:30+39nw5795 0.0 10034792
20:30+35wnw4101251 0.0 1004509
16 april, fri
fri1623:30+32w371485 0.0 1004202
02:30+30wnw39170 0.0 1004240
05:30+28w38183 0.0 1005215
08:30+32w582129 0.0 1007454
11:30+38wsw4816100 0.0 10063633
14:30+40wsw5711100 0.0 10024763
17:30+39w6611100 0.1 10013439
20:30+35nw361416 0.3 1003216